Home > Weather > Buldhana > Past weeks

Flag for India Weather for the Past 2 Weeks in Buldhana, Maharashtra, India

Now
82 °F

Haze.


Feels Like: 81 °F
Forecast: 66 / 85 °F
Wind: 3 mph from East

Location: Nagpur Sonegaon

Current Time: Feb 10, 2016 at 11:30:46 AM

Latest Report: Feb 10, 2016 at 11:00 AM


Visibility: 2 mi

Pressure: 30.01 "Hg (27.84 "Hg at 660m altitude)

Humidity: 30%

Dew point: 48 °F

Location of BuldhanaLocation

Historic Weather in Buldhana — Graph

°F

Buldhana Temperature Yesterday

Maximum temperature yesterday: 88 °F (at 3:00 PM)
Minimum temperature yesterday: 59 °F (at 7:30 AM)
Average temperature yesterday: 74 °F

High & Low Weather Summary for the Past Weeks

 TemperatureHumidityPressure
High97 °F (Jan 31, 3:30 PM)100% (Feb 3, 7:30 AM)30.15 "Hg (Feb 3, 7:30 AM)
Low57 °F (Feb 6, 6:30 AM)17% (Feb 8, 3:00 PM)29.86 "Hg (Feb 6, 3:00 PM)
Average76 °F42%29.99 "Hg
* Reported Jan 26 9:30 AM — Feb 10 9:30 AM, Buldhana, Weather by CustomWeather, © 2016

Note: Actual official high and low records may vary slightly from our data, if they occured in-between our weather recording intervals... More about our weather records

Advertising

Buldhana Weather History for the Previous 24 Hours

 ConditionsComfort  
Time TempWeatherWind HumidityBarometerVisibility
9:30 AM
Wed, Feb 10
75 °FFog.5 mph41%30.01 "Hg1 mi
9:00 AM73 °FFog.2 mph44%29.98 "Hg1 mi
7:00 AM66 °FFog.No wind56%29.95 "Hg1 mi
6:30 AM64 °FFog.No wind60%29.95 "Hg1 mi
6:00 AM64 °FHaze.No wind60%29.92 "Hg1 mi
5:30 AM59 °FHaze.No wind82%29.92 "Hg1 mi
5:00 AM64 °FHaze.No wind56%29.92 "Hg2 mi
4:30 AM64 °FHaze.No wind52%29.92 "Hg2 mi
4:00 AM64 °FHaze.No wind56%29.92 "Hg2 mi
2:30 AM66 °FHaze.No wind49%29.92 "Hg2 mi
1:30 AM72 °FHaze.2 mph44%29.92 "Hg2 mi
1:00 AM72 °FHaze.2 mph44%29.92 "Hg2 mi
12:30 AM72 °FHaze.2 mph47%29.95 "Hg2 mi
12:00 AM72 °FHaze.3 mph47%29.95 "Hg2 mi
11:30 PM
Tue, Feb 9
73 °FHaze.2 mph44%29.95 "Hg2 mi
11:00 PM72 °FHaze.No wind44%29.95 "Hg2 mi
10:30 PM72 °FHaze.No wind41%29.95 "Hg2 mi
10:00 PM72 °FHaze.No wind41%29.95 "Hg2 mi
9:00 PM73 °FHaze.No wind38%29.95 "Hg2 mi
7:30 PM77 °FHaze.No wind36%29.92 "Hg2 mi
6:30 PM79 °FHaze.2 mph30%29.92 "Hg2 mi
6:00 PM81 °FHaze.3 mph32%29.92 "Hg2 mi
5:30 PM84 °FHaze.2 mph29%29.92 "Hg2 mi
4:30 PM88 °FHaze.2 mph25%29.92 "Hg2 mi
3:00 PM88 °FHaze.3 mph24%29.92 "Hg2 mi
2:00 PM86 °FHaze.5 mph24%29.95 "Hg2 mi
1:30 PM84 °FHaze.3 mph25%29.98 "Hg2 mi
1:00 PM84 °FHaze.3 mph25%30.01 "Hg2 mi
12:30 PM82 °FHaze.5 mph26%30.01 "Hg2 mi
12:00 PM81 °FHaze.6 mph28%30.04 "Hg2 mi
11:30 AM81 °FHaze.6 mph28%30.07 "Hg2 mi
11:00 AM79 °FHaze.8 mph26%30.07 "Hg2 mi
Weather by CustomWeather, © 2016

See weather overviewHow to use our weather pages